Regional Weather Roundup
Issued by NWS

Home | Current Version | Previous Version | Text Only | Print | Product List | Glossary Off
Versions: 1 2 3 4 5 6 7 8 9 10 11 12 13 14 15 16 17 18 19 20 21 22 23 24 25 26 27 28 29 30 31 32 33 34 35 36 37 38 39 40 41 42 43 44 45 46 47 48 49 50

000
ASUS43 KLSX 220659
RWRMO

WEATHER SUMMARY FOR MISSOURI
NATIONAL WEATHER SERVICE SPRINGFIELD MO
200 AM CDT TUE JUL 22 2014

NOTE: "FAIR" INDICATES FEW OR NO CLOUDS BELOW 12,000 FEET WITH NO
       SIGNIFICANT WEATHER AND/OR OBSTRUCTIONS TO VISIBILITY.
       CURRENT SKY AND/OR WEATHER CONDITIONS ARE NOT AVAILABLE FOR
       CHILLICOTHE AND FARMINGTON.

MOZ001>031-035>038-043-044-053-054-220800-
...NORTHERN AND WESTERN MISSOURI...

CITY           SKY/WX    TMP DP  RH WIND       PRES   REMARKS
KANSAS CTY INT CLEAR     80  74  81 SW14      29.98F
KANSAS C DTWN  PTCLDY    82  74  76 S8        29.97F
LEE`S SUMMIT   PTCLDY    79  73  82 S9        30.01S
ST JOSEPH      PTCLDY    80  74  81 S8        29.95S
CHILLICOTHE      N/A     79  73  82 S5        30.00S
KIRKSVILLE     CLEAR     71  68  90 S7        30.03S

$$
MOZ066>068-077>081-088>096-101>105-220800-
...SOUTHWEST MISSOURI...

CITY           SKY/WX    TMP DP  RH WIND       PRES   REMARKS
SPRINGFIELD    CLEAR     73  66  78 S9        30.08S
JOPLIN         PTCLDY    74  71  91 S7        30.06S

$$
MOZ032>034-039>042-045>050-055>058-069>072-220800-
...CENTRAL MISSOURI...

CITY           SKY/WX    TMP DP  RH WIND       PRES   REMARKS
COLUMBIA       CLEAR     72  67  84 S8        30.06S
JEFFERSON CITY CLEAR     74  67  78 E5        30.04S
ROLLA          CLEAR     69  64  84 S8        30.08R
SEDALIA        CLEAR     75  67  76 S8        30.05R
OSAGE BEACH    CLEAR     72  64  78 S5        30.06F

$$
MOZ051-052-059>065-220800-
...EAST CENTRAL MISSOURI...

CITY           SKY/WX    TMP DP  RH WIND       PRES   REMARKS
ST LOUIS INTL  CLEAR     76  66  71 S5        30.07S
SPIRIT OF STL  CLEAR     70  66  87 CALM      30.07R
ST CHARLES     CLEAR     69  65  86 E3        30.06S

$$
MOZ072>076-082>087-097>100-106>115-220800-
...SOUTH CENTRAL AND SOUTHEAST MISSOURI...

CITY           SKY/WX    TMP DP  RH WIND       PRES   REMARKS
CAPE GIRARDEAU CLEAR     66  64  93 CALM      30.07R FOG
FARMINGTON     CLEAR     66  63  88 CALM      30.11R
POPLAR BLUFF   FOG       66  63  90 CALM      30.06S VSB 1/4
WEST PLAINS    CLEAR     69  63  81 S3        30.11S

$$



USA.gov is the U.S. government's official web portal to all federal, state and local government web resources and services.